User: anonymous   Login
Location: Home
(42.5358°N, 72.7383°W)
Time: 15:04:42
(UTC-05:00)
Language:

BEESAT - Orbit

View from above orbital plane
View from above orbital plane
View from above satellite
View from above satellite

Ground track
Ground track

The orbit data is extracted from the following two-line orbital elements,

1 35933U 09051C   22019.49186748  .00000412  00000-0  10327-3 0  9992
2 35933  98.5784 232.8474 0006203 148.2431 211.9141 14.56704410654488
Epoch (UTC): 19 January 2022 11:48:17
Eccentricity: 0.0006203
inclination: 98.5784°
perigee height: 699 km
apogee height: 708 km
right ascension of ascending node: 232.8474°
argument of perigee: 148.2431°
revolutions per day: 14.56704410
mean anomaly at epoch: 211.9141°
orbit number at epoch: 65448

The dashed part of the orbit path shows where the satellite is in the earth's shadow,  

DLR